Volver al catálogo

STARLINK-38133

ActivoComunicacionesSSO
NORAD 100216·PAYLOAD·🇺🇸 United States

Lanzado Aug 4, 2026 desde Vandenberg Space Force Base

Loading…

Próximos Pases (próximas 24 horas)

TLE

ActualizadoSource: Space-Track

Época: Sep 14, 2026, 15:31 UTC

1 A0216U 26177D   26257.64695376 -.00486166  00000-0 -75767-2 0  9997
2 A0216  97.2838 308.5297 0001305  78.2081 281.9320 15.55481385  6463

Sigue STARLINK-38133 en tiempo real con AllMySat

Download on the App Store